Météo par heure à Kislyakovo

Ce jour, 6 Mars, Samedi

Heure Température Précipitation Vent Pression Humidité
00:00 -10°C° 0 mm 2 m/s 741 mmHg 93%
01:00 -12°C° 0 mm 2 m/s 741 mmHg 93%
02:00 -12°C° 0 mm 2 m/s 742 mmHg 93%
03:00 -12°C° 0 mm 2 m/s 742 mmHg 93%
04:00 -10°C° 0 mm 2 m/s 742 mmHg 93%
05:00 -10°C° 0 mm 2 m/s 742 mmHg 93%
06:00 -10°C° 0 mm 2 m/s 742 mmHg 91%
07:00 -10°C° 0 mm 3 m/s 742 mmHg 89%
08:00 -10°C° 0 mm 3 m/s 743 mmHg 87%
09:00 -9°C° 0 mm 3 m/s 743 mmHg 82%
10:00 -8°C° 0 mm 3 m/s 742 mmHg 77%
11:00 -8°C° 0 mm 3 m/s 742 mmHg 72%
12:00 -7°C° 0 mm 3 m/s 742 mmHg 69%
13:00 -7°C° 0 mm 3 m/s 741 mmHg 66%
14:00 -6°C° 0 mm 3 m/s 741 mmHg 63%
15:00 -7°C° 0 mm 3 m/s 741 mmHg 67%
16:00 -7°C° 0 mm 2 m/s 740 mmHg 72%
17:00 -7°C° 0 mm 2 m/s 740 mmHg 77%
18:00 -8°C° 0 mm 3 m/s 739 mmHg 77%
19:00 -8°C° 0 mm 3 m/s 738 mmHg 77%
20:00 -9°C° 0 mm 4 m/s 738 mmHg 77%
21:00 -10°C° 0 mm 5 m/s 737 mmHg 79%
22:00 -10°C° 0 mm 5 m/s 735 mmHg 81%
23:00 -10°C° 0 mm 6 m/s 734 mmHg 84%

Demain, 7 Mars, Dimanche

Heure Température Précipitation Vent Pression Humidité
00:00 -9°C° 0.2 mm 6 m/s 733 mmHg 86%
01:00 -9°C° 0.2 mm 6 m/s 731 mmHg 88%
02:00 -8°C° 0.2 mm 6 m/s 730 mmHg 90%
03:00 -8°C° 0.4 mm 6 m/s 729 mmHg 90%
04:00 -6°C° 0.4 mm 6 m/s 727 mmHg 90%
05:00 -6°C° 0.4 mm 6 m/s 726 mmHg 90%
06:00 -6°C° 0.4 mm 6 m/s 725 mmHg 91%
07:00 -6°C° 0.4 mm 6 m/s 725 mmHg 91%
08:00 -5°C° 0.4 mm 6 m/s 724 mmHg 91%
09:00 -6°C° 0.5 mm 6 m/s 724 mmHg 82%
10:00 -8°C° 0.5 mm 7 m/s 724 mmHg 72%
11:00 -9°C° 0.5 mm 7 m/s 724 mmHg 63%
12:00 -9°C° 0 mm 7 m/s 725 mmHg 63%
13:00 -8°C° 0 mm 6 m/s 725 mmHg 63%
14:00 -8°C° 0 mm 6 m/s 725 mmHg 63%
15:00 -7°C° 0.2 mm 5 m/s 725 mmHg 70%
16:00 -8°C° 0.2 mm 4 m/s 725 mmHg 78%
17:00 -7°C° 0.2 mm 3 m/s 725 mmHg 85%
18:00 -7°C° 0.4 mm 3 m/s 725 mmHg 87%
19:00 -8°C° 0.4 mm 3 m/s 724 mmHg 90%
20:00 -7°C° 0.4 mm 2 m/s 724 mmHg 93%
21:00 -9°C° 0.1 mm 3 m/s 724 mmHg 92%
22:00 -9°C° 0.1 mm 3 m/s 724 mmHg 92%
23:00 -10°C° 0.1 mm 3 m/s 724 mmHg 91%

Après-demain, 8 Mars, Lundi

Heure Température Précipitation Vent Pression Humidité
00:00 -12°C° 0 mm 3 m/s 725 mmHg 92%
01:00 -13°C° 0 mm 3 m/s 725 mmHg 93%
02:00 -14°C° 0 mm 3 m/s 726 mmHg 94%
03:00 -13°C° 0 mm 3 m/s 726 mmHg 92%
04:00 -14°C° 0 mm 4 m/s 727 mmHg 90%
05:00 -14°C° 0 mm 4 m/s 727 mmHg 88%
06:00 -14°C° 0 mm 5 m/s 728 mmHg 87%
07:00 -14°C° 0 mm 5 m/s 729 mmHg 86%
08:00 -14°C° 0 mm 5 m/s 730 mmHg 85%
09:00 -13°C° 0.1 mm 5 m/s 730 mmHg 84%
10:00 -12°C° 0.1 mm 5 m/s 731 mmHg 82%
11:00 -12°C° 0.1 mm 5 m/s 731 mmHg 81%
12:00 -12°C° 0.1 mm 5 m/s 732 mmHg 80%
13:00 -12°C° 0.1 mm 5 m/s 733 mmHg 80%
14:00 -11°C° 0.1 mm 5 m/s 734 mmHg 79%
15:00 -12°C° 0.1 mm 5 m/s 734 mmHg 81%
16:00 -11°C° 0.1 mm 4 m/s 735 mmHg 83%
17:00 -12°C° 0.1 mm 4 m/s 735 mmHg 85%
18:00 -14°C° 0 mm 4 m/s 736 mmHg 86%
19:00 -15°C° 0 mm 4 m/s 737 mmHg 88%
20:00 -16°C° 0 mm 4 m/s 737 mmHg 89%
21:00 -15°C° 0 mm 3 m/s 738 mmHg 90%
22:00 -16°C° 0 mm 3 m/s 738 mmHg 90%
23:00 -17°C° 0 mm 3 m/s 739 mmHg 91%

9 Mars, Mardi

Heure Température Précipitation Vent Pression Humidité
00:00 -18°C° 0 mm 3 m/s 739 mmHg 92%
01:00 -19°C° 0 mm 3 m/s 740 mmHg 93%
02:00 -19°C° 0 mm 3 m/s 740 mmHg 93%
03:00 -21°C° 0 mm 3 m/s 740 mmHg 94%
04:00 -20°C° 0 mm 2 m/s 741 mmHg 95%
05:00 -20°C° 0 mm 2 m/s 741 mmHg 95%
06:00 -20°C° 0 mm 2 m/s 742 mmHg 93%
07:00 -20°C° 0 mm 2 m/s 742 mmHg 91%
08:00 -19°C° 0 mm 2 m/s 742 mmHg 89%
09:00 -18°C° 0 mm 2 m/s 743 mmHg 84%
10:00 -16°C° 0 mm 2 m/s 743 mmHg 78%
11:00 -14°C° 0 mm 2 m/s 743 mmHg 73%
12:00 -14°C° 0 mm 2 m/s 743 mmHg 72%
13:00 -13°C° 0 mm 2 m/s 743 mmHg 70%
14:00 -10°C° 0 mm 1 m/s 743 mmHg 69%
15:00 -10°C° 0 mm 1 m/s 742 mmHg 76%
16:00 -11°C° 0 mm 1 m/s 742 mmHg 82%
17:00 -11°C° 0 mm 0 m/s 742 mmHg 89%
18:00 -11°C° 0.1 mm 1 m/s 742 mmHg 90%
19:00 -12°C° 0.1 mm 1 m/s 742 mmHg 92%
20:00 -14°C° 0.1 mm 2 m/s 742 mmHg 93%
21:00 -15°C° 0.1 mm 2 m/s 742 mmHg 93%
22:00 -17°C° 0.1 mm 3 m/s 742 mmHg 93%
23:00 -18°C° 0.1 mm 3 m/s 743 mmHg 92%

10 Mars, Mercredi

Heure Température Précipitation Vent Pression Humidité
00:00 -19°C° 0 mm 3 m/s 743 mmHg 93%
01:00 -21°C° 0 mm 3 m/s 743 mmHg 93%
02:00 -22°C° 0 mm 3 m/s 743 mmHg 94%
03:00 -23°C° 0 mm 2 m/s 744 mmHg 95%
04:00 -24°C° 0 mm 2 m/s 744 mmHg 95%
05:00 -25°C° 0 mm 2 m/s 744 mmHg 96%
06:00 -24°C° 0 mm 2 m/s 745 mmHg 94%
07:00 -24°C° 0 mm 2 m/s 746 mmHg 92%
08:00 -24°C° 0 mm 2 m/s 746 mmHg 90%
09:00 -21°C° 0 mm 2 m/s 747 mmHg 85%
10:00 -20°C° 0 mm 2 m/s 747 mmHg 80%
11:00 -19°C° 0 mm 2 m/s 747 mmHg 75%
12:00 -18°C° 0 mm 2 m/s 747 mmHg 73%
13:00 -17°C° 0 mm 2 m/s 747 mmHg 71%
14:00 -16°C° 0 mm 2 m/s 747 mmHg 69%
15:00 -17°C° 0 mm 2 m/s 747 mmHg 74%
16:00 -16°C° 0 mm 1 m/s 747 mmHg 79%
17:00 -16°C° 0 mm 1 m/s 747 mmHg 83%
18:00 -17°C° 0 mm 1 m/s 748 mmHg 87%
19:00 -19°C° 0 mm 1 m/s 748 mmHg 90%
20:00 -20°C° 0 mm 1 m/s 748 mmHg 93%
21:00 -20°C° 0 mm 1 m/s 748 mmHg 93%
22:00 -21°C° 0 mm 1 m/s 748 mmHg 93%
23:00 -21°C° 0 mm 1 m/s 749 mmHg 93%

11 Mars, Jeudi

Heure Température Précipitation Vent Pression Humidité
00:00 -22°C° 0 mm 1 m/s 749 mmHg 93%
01:00 -22°C° 0 mm 1 m/s 749 mmHg 93%
02:00 -22°C° 0 mm 1 m/s 749 mmHg 94%
03:00 -22°C° 0 mm 1 m/s 749 mmHg 94%
04:00 -22°C° 0 mm 1 m/s 749 mmHg 94%
05:00 -23°C° 0 mm 1 m/s 749 mmHg 95%
06:00 -22°C° 0 mm 1 m/s 749 mmHg 92%
07:00 -24°C° 0 mm 2 m/s 749 mmHg 89%
08:00 -23°C° 0 mm 2 m/s 749 mmHg 86%
09:00 -20°C° 0 mm 2 m/s 748 mmHg 81%
10:00 -21°C° 0 mm 3 m/s 748 mmHg 77%
11:00 -18°C° 0 mm 3 m/s 748 mmHg 72%
12:00 -18°C° 0 mm 4 m/s 747 mmHg 71%
13:00 -17°C° 0 mm 4 m/s 746 mmHg 70%
14:00 -16°C° 0 mm 4 m/s 746 mmHg 69%
15:00 -16°C° 0 mm 4 m/s 745 mmHg 71%
16:00 -17°C° 0 mm 4 m/s 744 mmHg 74%
17:00 -17°C° 0 mm 4 m/s 744 mmHg 77%
18:00 -19°C° 0 mm 5 m/s 743 mmHg 78%
19:00 -19°C° 0 mm 5 m/s 742 mmHg 79%
20:00 -19°C° 0 mm 5 m/s 741 mmHg 80%
21:00 -20°C° 0 mm 6 m/s 740 mmHg 81%
22:00 -20°C° 0 mm 6 m/s 739 mmHg 82%
23:00 -18°C° 0 mm 6 m/s 738 mmHg 84%
Voir plus

Nous avons besoin de votre consentement

Meteoprog et ses fournisseurs de services peuvent stocker et accéder à des données personnelles telles que des cookies, des identifiants d'appareils ou d'autres technologies similaires sur votre appareil et traiter ces données pour personnaliser le contenu et les publicités, ainsi que pour fournir des fonctionnalités de médias sociaux et analyser le trafic.

  • Stocker et/ou accéder à des informations sur votre appareil

    Des cookies, des identifiants d'appareils ou d'autres informations peuvent être stockés ou accessibles sur votre appareil aux fins indiquées ci-dessus.

  • Annonces et contenus personnalisés, mesure des annonces et des contenus, connaissance de l'audience et développement de produits

    Les annonces et le contenu peuvent être personnalisés en fonction d'un profil. D'autres données peuvent être ajoutées pour mieux personnaliser les annonces et le contenu. Les performances des publicités et du contenu peuvent être mesurées. Il est possible d'obtenir des informations sur le public qui a vu les publicités et le contenu. Ces données peuvent être utilisées pour développer ou améliorer l'expérience de l'utilisateur, les systèmes et les logiciels.

En cliquant sur "J'accepte", vous autorisez l'utilisation de cookies, des identifiants d'appareils, des balises web ou d'autres technologies similaires. Vos paramètres peuvent être modifiés dans le navigateur de votre appareil.

Dans certains cas, des intérêts légitimes peuvent être invoqués plutôt qu'un consentement. Vous pouvez en savoir plus à ce sujet dans notre Politique de confidentialité et de cookies.